This is the latest recevied weather packets stored in our database for station/object KI5NXU. If no packets are shown the sender has not sent any weather packets the latest 10 day(s).
| Time | Temp. | Humidity | Pressure | Rain* | Wind** | Luminosity | Snow |
|---|---|---|---|---|---|---|---|
| 1788374065 | 36.67° C | 40% | 1014.1 hPa | 0 mm | - | 732 W/m² | - |
| 1788373761 | 36.67° C | 40% | 1014.2 hPa | 0 mm | - | 727 W/m² | - |
| 1788373458 | 36.11° C | 42% | 1014.4 hPa | 0 mm | - | 735 W/m² | - |
| 1788373154 | 35° C | 45% | 1014.4 hPa | 0 mm | - | 210 W/m² | - |
| 1788372849 | 34.44° C | 45% | 1014.5 hPa | 0 mm | - | 145 W/m² | - |
| 1788372548 | 35° C | 46% | 1014.7 hPa | 0 mm | - | 135 W/m² | - |
| 1788372244 | 34.44° C | 48% | 1014.6 hPa | 0 mm | - | 200 W/m² | - |
| 1788371939 | 34.44° C | 48% | 1014.7 hPa | 0 mm | - | 162 W/m² | - |
| 1788371634 | 35° C | 46% | 1014.6 hPa | 0 mm | - | 127 W/m² | - |
| 1788371330 | 35.56° C | 45% | 1014.8 hPa | 0 mm | - | 134 W/m² | - |
| 1788371027 | 35.56° C | 45% | 1015 hPa | 0 mm | - | 766 W/m² | - |
| 1788370722 | 35° C | 45% | 1015 hPa | 0 mm | - | 701 W/m² | - |
| 1788370422 | 35° C | 47% | 1015 hPa | 0 mm | - | 571 W/m² | - |
| 1788370116 | 35.56° C | 46% | 1015.2 hPa | 0 mm | - | 512 W/m² | - |
| 1788369816 | 35° C | 47% | 1015 hPa | 0 mm | - | 733 W/m² | - |
| 1788369511 | 35.56° C | 45% | 1015.1 hPa | 0 mm | - | 718 W/m² | - |
| 1788369206 | 35° C | 48% | 1015.1 hPa | 0 mm | - | 665 W/m² | - |
| 1788368897 | 35° C | 48% | 1015.3 hPa | 0 mm | - | 650 W/m² | - |
| 1788368592 | 35° C | 48% | 1015.3 hPa | 0 mm | - | 736 W/m² | - |
| 1788368288 | 34.44° C | 48% | 1015.4 hPa | 0 mm | - | 734 W/m² | - |
| 1788367981 | 36.11° C | 48% | 1015.6 hPa | 0 mm | - | 693 W/m² | - |
| 1788367676 | 36.11° C | 47% | 1015.5 hPa | 0 mm | - | 648 W/m² | - |
| 1788367371 | 34.44° C | 49% | 1015.5 hPa | 0 mm | - | 684 W/m² | - |
| 1788367065 | 35.56° C | 48% | 1015.6 hPa | 0 mm | - | 698 W/m² | - |
| 1788366759 | 33.89° C | 51% | 1015.7 hPa | 0 mm | - | 683 W/m² | - |
* Rain latest hour (hover to see other rain measurements)
** Current wind speed in m/s (hover to see current wind gust speed)